Regional Weather Roundup
Issued by NWS Jackson, KY

Home | Current Version | Previous Version | Text Only | Print | Product List | Glossary Off
Versions: 1 2 3 4 5 6 7 8 9 10 11 12 13 14 15 16 17 18 19 20 21 22 23 24 25 26 27 28 29 30 31 32 33 34 35 36 37 38 39 40 41 42 43 44 45 46 47 48 49 50

000
ASUS43 KJKL 030710
RWRJKL

EAST KENTUCKY HOURLY WEATHER ROUNDUP
NATIONAL WEATHER SERVICE JACKSON KY
200 AM EST SAT DEC 03 2016

NOTE: "FAIR" INDICATES FEW OR NO CLOUDS BELOW 12,000 FEET WITH
NO SIGNIFICANT WEATHER AND/OR OBSTRUCTIONS TO VISIBILITY.

* THESE REPORTS ARE NOT UNDER NWS QUALITY CONTROL AND MAY NOT
  REPORT WEATHER SUCH AS PRECIPITATION AND FOG.

KYZ079-080-083-085-087-088-110-112-115-119-120-030800
...EASTERN KENTUCKY...

CITY           SKY/WX    TMP DP  RH WIND       PRES   REMARKS
JACKSON        CLOUDY    35  29  78 CALM      30.30F
LONDON         CLOUDY    31  27  85 CALM      30.33R
SOMERSET*      CLOUDY    30  30 100 CALM      30.35S
MONTICELLO*    PTCLDY    24  22  91 VRB5      30.35S WCI  18
WILLIAMSBURG*  SUNNY     28  28 100 CALM      30.32S
MIDDLESBORO*   PTCLDY    30  29  96 CALM      30.33R
HARLAN APT*    CLOUDY    32  28  86 CALM      30.31R
PIKE CO APT*   CLOUDY    35  30  83 CALM      30.30S
MOREHEAD APT*  CLOUDY    37  28  70 CALM      30.33S
ASHLAND*       CLOUDY    39  30  70 N3        30.30S
$$

KYZ035-036-041-042-044-050-067-078-099-030800
...CENTRAL KENTUCKY...

CITY           SKY/WX    TMP DP  RH WIND       PRES   REMARKS
MT STERLING*   CLOUDY    37  32  81 CALM      30.34S
DANVILLE*      CLOUDY    32  32 100 CALM      30.34R
FRANKFORT      CLOUDY    40  30  67 CALM      30.32S
LOUISVILLE     CLOUDY    41  29  62 N6        30.32F
LEBANON*       CLOUDY    36  32  87 CALM      30.33F
GLASGOW*       MOCLDY    32  31  99 CALM      30.35R
BOWLING GREEN  CLOUDY    33  29  85 CALM      30.35F
$$

KYZ091>093-OHZ055-061-077-WVZ005-015-034-035-042-030800
...SOUTHERN OHIO/WEST VIRGINIA...

CITY           SKY/WX    TMP DP  RH WIND       PRES   REMARKS
COLUMBUS       MOCLDY    34  29  82 NW5       30.28S WCI  30
DAYTON         CLOUDY    36  30  79 W5        30.30R WCI  32
HUNTINGTON     CLOUDY    39  28  64 CALM      30.31
PINEVILLE*     CLOUDY    36  26  66 MISG      30.31S
BECKLEY        CLOUDY    31  25  78 NW12      30.22  WCI  22
LOGAN CO APT*  CLOUDY    36  28  75 CALM      30.28R
$$

VAZ002-007-008-TNZ017-027-036-066-071-030800
...SOUTHWEST VIRGINIA/EAST TENNESSEE...

CITY           SKY/WX    TMP DP  RH WIND       PRES   REMARKS
WISE*          CLOUDY    32  28  86 CALM      30.27R
JONESVILLE*      N/A     32  30  93 CALM      30.33R
ABINGDON*      CLOUDY    37  30  75 N3        30.27R
BRISTOL        CLEAR     33  27  78 CALM      30.30R
MORRISTOWN*    SUNNY     37  30  75 NW3       30.28R
SEVIERVILLE*   SUNNY     30  28  93 CALM      30.30R
KNOXVILLE      MOCLDY    37  31  78 NE3       30.29R
OAK RIDGE      CLOUDY    40  29  64 E3        30.31S
CROSSVILLE     PTCLDY    36  27  69 N6        30.28  WCI  31
NASHVILLE      MOCLDY    40  31  70 N7        30.33F
$$

...KEY TO REMARKS...
VSB - VISIBILITY IN MILES
WCI - WIND CHILL INDEX
HX  - HEAT INDEX

$$



USA.gov is the U.S. government's official web portal to all federal, state and local government web resources and services.